EW0380 Weather Reports


Display with metric or nautical units.
time (UTC)temp
F
wind
direction
speed
MPH
gust
MPH
rain 1hr
in
rain 24hr
in
rain mn
in
humidity
%
barometer
mb
20260509122024 52 187 8.0 10.0 0.00 0.01 0.00 94 1008.5
20260509121025 52 173 6.0 9.0 0.00 0.01 0.00 94 1008.6
20260509120024 52 188 6.0 8.0 0.00 0.01 0.00 94 1008.6
20260509115028 52 191 6.0 8.0 0.00 0.01 0.00 95 1008.5
20260509114032 51 153 6.0 8.0 0.00 0.01 0.00 95 1008.5
20260509113019 51 183 5.0 7.0 0.00 0.01 0.00 95 1008.5
20260509112023 51 177 5.0 6.0 0.00 0.01 0.00 95 1008.5
20260509111027 51 184 6.0 7.0 0.00 0.01 0.00 96 1008.5
20260509110026 51 186 6.0 9.0 0.00 0.01 0.00 96 1008.6
20260509105018 51 176 5.0 7.0 0.00 0.01 0.00 96 1008.5
20260509104042 51 171 5.0 5.0 0.00 0.01 0.00 96 1008.5
20260509103021 51 157 5.0 6.0 0.00 0.01 0.00 95 1008.5
20260509102039 51 174 4.0 6.0 0.00 0.01 0.00 95 1008.4
20260509101017 51 184 5.0 8.0 0.00 0.01 0.00 95 1008.4
20260509100036 51 167 4.0 6.0 0.00 0.01 0.00 95 1008.4
20260509095025 51 178 6.0 10.0 0.00 0.01 0.00 95 1008.6
20260509094030 51 173 6.0 8.0 0.00 0.01 0.00 95 1008.7
20260509093017 51 190 7.0 10.0 0.00 0.01 0.00 95 1008.7
20260509092021 51 187 7.0 9.0 0.00 0.01 0.00 95 1008.8
20260509091025 51 192 6.0 9.0 0.00 0.01 0.00 95 1008.8
20260509090030 51 168 6.0 7.0 0.00 0.01 0.00 95 1009.0
20260509085016 51 166 7.0 9.0 0.00 0.01 0.00 95 1009.1
20260509084021 51 189 6.0 9.0 0.00 0.01 0.00 95 1009.1
20260509083025 51 185 6.0 7.0 0.00 0.01 0.00 95 1009.0
20260509082029 51 172 5.0 7.0 0.00 0.01 0.00 95 1009.0
20260509081015 51 188 6.0 7.0 0.00 0.01 0.00 95 1009.0
20260509080019 51 185 6.0 8.0 0.00 0.01 0.00 95 1009.0
20260509075024 51 178 6.0 9.0 0.00 0.01 0.00 95 1009.1
20260509074028 51 199 6.0 8.0 0.00 0.01 0.00 95 1009.1
20260509073033 51 189 6.0 7.0 0.00 0.01 0.00 95 1009.1
20260509072019 51 163 5.0 6.0 0.00 0.01 0.00 95 1009.1
20260509071023 51 178 5.0 7.0 0.00 0.01 0.00 95 1009.3
20260509070027 51 185 6.0 9.0 0.00 0.01 0.00 95 1009.3
20260509065032 51 193 6.0 8.0 0.00 0.01 0.00 95 1009.4
20260509064018 51 196 6.0 8.0 0.00 0.01 0.00 95 1009.5
20260509063023 51 204 6.0 8.0 0.00 0.01 0.00 95 1009.5
20260509062027 51 183 6.0 8.0 0.00 0.01 0.00 95 1009.5
20260509061031 51 180 6.0 7.0 0.00 0.01 0.00 95 1009.6
20260509060017 51 160 5.0 7.0 0.00 0.01 0.00 95 1009.8
20260509055022 51 161 5.0 7.0 0.00 0.01 0.00 95 1009.8
20260509054026 51 180 6.0 7.0 0.00 0.01 0.00 95 1009.9
20260509053030 51 183 7.0 10.0 0.00 0.01 0.00 95 1010.0
20260509052036 51 183 6.0 8.0 0.00 0.01 0.00 95 1010.2
20260509051020 51 179 6.0 8.0 0.00 0.01 0.00 95 1010.3
20260509050025 51 182 6.0 8.0 0.00 0.01 0.00 95 1010.4
20260509045023 50 175 7.0 11.0 0.00 0.01 0.00 95 1010.4
20260509044015 50 180 5.0 7.0 0.00 0.01 0.00 95 1010.4
20260509043021 50 189 6.0 8.0 0.00 0.01 0.00 95 1010.5
20260509042018 50 184 6.0 8.0 0.00 0.01 0.00 95 1010.7
20260509041036 50 175 6.0 9.0 0.00 0.01 0.00 95 1010.9
20260509040032 50 174 6.0 8.0 0.00 0.01 0.00 95 1010.9
20260509035019 50 174 6.0 8.0 0.00 0.01 0.01 95 1011.0
20260509034023 50 162 6.0 7.0 0.00 0.01 0.01 95 1011.0
20260509033028 50 176 5.0 7.0 0.00 0.01 0.01 95 1011.0
20260509032032 51 169 6.0 8.0 0.00 0.01 0.01 95 1011.2
20260509031018 51 172 5.0 6.0 0.00 0.01 0.01 95 1011.3
20260509030023 51 176 5.0 7.0 0.00 0.01 0.01 95 1011.1
20260509025027 51 185 6.0 8.0 0.00 0.01 0.01 95 1011.3
20260509024031 51 157 6.0 8.0 0.00 0.01 0.01 95 1011.3
20260509023017 51 185 6.0 8.0 0.00 0.01 0.01 95 1011.3
20260509022022 51 164 5.0 7.0 0.00 0.01 0.01 95 1011.5
20260509021026 51 162 5.0 7.0 0.00 0.01 0.01 95 1011.3
20260509020030 51 154 5.0 7.0 0.01 0.01 0.01 95 1011.5
20260509015016 51 151 4.0 6.0 0.01 0.01 0.01 95 1011.5
20260509014020 51 135 4.0 5.0 0.01 0.01 0.01 95 1011.5
20260509013025 51 175 4.0 6.0 0.01 0.01 0.01 95 1011.5
20260509012029 51 172 3.0 5.0 0.01 0.01 0.01 94 1011.3
20260509011015 51 191 4.0 5.0 0.01 0.01 0.01 94 1011.4
20260509010019 51 188 5.0 6.0 0.00 0.00 0.00 92 1011.3
20260509005024 52 187 6.0 8.0 0.00 0.00 0.00 90 1011.1
20260509004028 52 191 6.0 7.0 0.00 0.00 0.00 87 1011.0
20260509003032 53 188 6.0 8.0 0.00 0.00 0.00 84 1011.0
20260509002018 53 155 5.0 6.0 0.00 0.00 0.00 82 1011.0
20260509001023 54 180 3.0 4.0 0.00 0.00 0.00 79 1011.0
20260509000027 54 121 3.0 5.0 0.00 0.00 0.00 76 1011.0
20260508235031 54 151 3.0 4.0 0.00 0.00 0.00 76 1010.9
20260508234018 55 85 1.0 2.0 0.00 0.00 0.00 72 1010.9
20260508233022 55 106 2.0 3.0 0.00 0.00 0.00 71 1010.9
20260508232026 56 97 1.0 3.0 0.00 0.00 0.00 71 1011.1
20260508231024 56 15 1.0 2.0 0.00 0.00 0.00 69 1011.0
20260508230037 56 356 1.0 2.0 0.00 0.00 0.00 69 1011.1
20260508225021 57 0.0 0.0 0.00 0.00 0.00 68 1010.9
20260508224100 57 25 2.0 3.0 0.00 0.00 0.00 68 1010.9
20260508223018 58 7 2.0 3.0 0.00 0.00 0.00 66 1011.0
20260508222017 59 11 2.0 4.0 0.00 0.00 0.00 66 1011.1
20260508221020 59 300 1.0 3.0 0.00 0.00 0.00 65 1011.1
20260508220025 59 12 2.0 3.0 0.00 0.00 0.00 64 1011.0
20260508215029 59 349 2.0 3.0 0.00 0.00 0.00 65 1011.0
20260508214035 59 357 3.0 4.0 0.00 0.00 0.00 65 1011.1
20260508213100 59 1 2.0 4.0 0.00 0.00 0.00 65 1011.1
20260508212023 59 0 2.0 4.0 0.00 0.00 0.00 66 1011.1
20260508211029 59 14 3.0 4.0 0.00 0.00 0.00 66 1011.3
20260508210052 59 348 2.0 5.0 0.00 0.00 0.00 65 1011.2
20260508205018 59 17 3.0 4.0 0.00 0.00 0.00 65 1011.1
20260508204023 60 349 3.0 6.0 0.00 0.00 0.00 64 1011.2
20260508203027 60 21 4.0 7.0 0.00 0.00 0.00 63 1011.3
20260508202031 60 9 4.0 6.0 0.00 0.00 0.00 63 1011.2
20260508201017 61 358 3.0 5.0 0.00 0.00 0.00 63 1011.3
20260508200022 61 5 4.0 6.0 0.00 0.00 0.00 63 1011.3
20260508195026 61 12 4.0 7.0 0.00 0.00 0.00 63 1011.4
20260508194030 61 14 5.0 6.0 0.00 0.00 0.00 64 1011.5
20260508193017 61 12 4.0 5.0 0.00 0.00 0.00 63 1011.6
20260508192021 63 22 5.0 7.0 0.00 0.00 0.00 62 1011.7
20260508191025 64 16 4.0 5.0 0.00 0.00 0.00 60 1011.8
20260508190030 63 324 3.0 5.0 0.00 0.00 0.00 61 1011.9
20260508185016 63 237 4.0 5.0 0.00 0.00 0.00 61 1012.1
20260508184020 63 14 3.0 6.0 0.00 0.00 0.00 60 1012.3
20260508183024 64 27 3.0 5.0 0.00 0.00 0.00 61 1012.3
20260508182029 63 334 3.0 5.0 0.00 0.00 0.00 62 1012.5
20260508181035 62 11 3.0 5.0 0.00 0.00 0.00 62 1012.6
20260508180019 61 317 3.0 4.0 0.00 0.00 0.00 64 1012.7
20260508175024 60 292 3.0 6.0 0.00 0.00 0.00 63 1012.9
20260508174028 59 288 3.0 5.0 0.00 0.00 0.00 66 1013.0
20260508173027 58 245 3.0 6.0 0.00 0.00 0.00 66 1013.1
20260508172019 58 258 3.0 7.0 0.00 0.00 0.00 66 1013.1
20260508171023 59 357 3.0 4.0 0.00 0.00 0.00 65 1013.2
20260508170022 58 262 4.0 7.0 0.00 0.00 0.00 66 1013.4
20260508165020 57 307 2.0 5.0 0.00 0.00 0.00 66 1013.4
20260508164018 57 318 2.0 4.0 0.00 0.00 0.00 68 1013.5
20260508163016 56 349 1.0 4.0 0.00 0.00 0.00 69 1013.6
20260508162015 54 248 2.0 3.0 0.00 0.00 0.00 71 1013.9
20260508161031 53 299 2.0 4.0 0.00 0.00 0.00 73 1013.9
20260508160017 53 296 0.0 2.0 0.00 0.00 0.00 73 1013.9
20260508155022 53 4 2.0 4.0 0.00 0.00 0.00 74 1013.9
20260508154046 53 5 2.0 4.0 0.00 0.00 0.00 74 1013.9
20260508153030 52 18 2.0 3.0 0.00 0.00 0.00 74 1013.9
20260508152016 52 9 3.0 4.0 0.00 0.00 0.00 75 1013.8
20260508151021 53 12 2.0 3.0 0.00 0.00 0.00 76 1013.8
20260508150026 53 350 2.0 3.0 0.00 0.00 0.00 75 1013.8
20260508145029 53 30 2.0 4.0 0.00 0.00 0.00 76 1013.6
20260508144035 52 279 2.0 4.0 0.00 0.00 0.00 76 1013.7
20260508143020 52 312 1.0 4.0 0.00 0.00 0.00 80 1013.8
20260508142044 50 309 1.0 2.0 0.00 0.00 0.00 82 1013.9
20260508141028 49 45 0.0 1.0 0.00 0.00 0.00 86 1013.9
20260508140032 48 293 0.0 2.0 0.00 0.00 0.00 86 1014.1
20260508135019 48 358 3.0 4.0 0.00 0.00 0.00 84 1014.0
20260508134023 49 7 2.0 3.0 0.00 0.00 0.00 83 1013.9
20260508133027 49 14 2.0 3.0 0.00 0.00 0.00 82 1013.9
20260508132032 49 5 4.0 5.0 0.00 0.00 0.00 81 1013.9
20260508131018 50 294 3.0 5.0 0.00 0.00 0.00 79 1013.8
20260508130023 50 237 2.0 4.0 0.00 0.00 0.00 78 1013.6
20260508125027 49 236 2.0 3.0 0.00 0.00 0.00 80 1013.6
20260508124031 49 239 3.0 3.0 0.00 0.00 0.00 80 1013.6
20260508123017 48 248 2.0 3.0 0.00 0.00 0.00 81 1013.6